User: anonymous   Login
Location: Unspecified
(0.0000°N, 0.0000°E)
Time: 12:52:42
(UTC+01:00)
Language:

CZ-4B DEB - Orbit

View from above orbital plane
View from above orbital plane
View from above satellite
View from above satellite

Ground track
Ground track

The orbit data is extracted from the following two-line orbital elements,

1 33411U 08053D   17020.20032571  .00021594  00000-0  34857-3 0  9999
2 33411  97.4292  62.9170 0006478 120.7527 239.4364 15.52890063453339
Epoch (UTC): 20 January 2017 04:48:28
Eccentricity: 0.0006478
inclination: 97.4292°
perigee height: 404 km
apogee height: 412 km
right ascension of ascending node: 62.9170°
argument of perigee: 120.7527°
revolutions per day: 15.52890063
mean anomaly at epoch: 239.4364°
orbit number at epoch: 45333

The dashed part of the orbit path shows where the satellite is in the earth's shadow,  

DLR